Hourly Weather Lugi

Today, 16 June, Wednesday

Time Temperature Precipitation Wind Pressure Humidity
00:00 +10°C° 0 mm 2 mps 762 mmHg 92%
01:00 +10°C° 0 mm 2 mps 762 mmHg 93%
02:00 +10°C° 0 mm 2 mps 762 mmHg 93%
03:00 +10°C° 0 mm 2 mps 762 mmHg 93%
04:00 +11°C° 0 mm 1 mps 762 mmHg 93%
05:00 +13°C° 0 mm 2 mps 762 mmHg 84%
06:00 +15°C° 0 mm 2 mps 762 mmHg 74%
07:00 +17°C° 0 mm 2 mps 763 mmHg 64%
08:00 +18°C° 0 mm 2 mps 763 mmHg 58%
09:00 +19°C° 0 mm 2 mps 763 mmHg 53%
10:00 +20°C° 0 mm 2 mps 763 mmHg 48%
11:00 +21°C° 0 mm 2 mps 763 mmHg 46%
12:00 +21°C° 0 mm 2 mps 763 mmHg 45%
13:00 +23°C° 0 mm 2 mps 763 mmHg 43%
14:00 +22°C° 0 mm 3 mps 762 mmHg 45%
15:00 +21°C° 0 mm 3 mps 762 mmHg 47%
16:00 +21°C° 0 mm 3 mps 762 mmHg 48%
17:00 +20°C° 0 mm 3 mps 762 mmHg 56%
18:00 +19°C° 0 mm 3 mps 762 mmHg 63%
19:00 +17°C° 0 mm 3 mps 762 mmHg 70%
20:00 +16°C° 0 mm 3 mps 762 mmHg 74%
21:00 +14°C° 0 mm 3 mps 763 mmHg 78%
22:00 +12°C° 0 mm 3 mps 763 mmHg 83%
23:00 +12°C° 0 mm 3 mps 763 mmHg 83%

Tomorrow, 17 June, Thursday

Time Temperature Precipitation Wind Pressure Humidity
00:00 +12°C° 0 mm 3 mps 763 mmHg 83%
01:00 +12°C° 0 mm 3 mps 763 mmHg 84%
02:00 +12°C° 0 mm 3 mps 763 mmHg 85%
03:00 +12°C° 0 mm 3 mps 763 mmHg 87%
04:00 +12°C° 0 mm 3 mps 763 mmHg 88%
05:00 +14°C° 0 mm 3 mps 763 mmHg 79%
06:00 +17°C° 0 mm 3 mps 763 mmHg 70%
07:00 +20°C° 0 mm 3 mps 763 mmHg 61%
08:00 +21°C° 0 mm 3 mps 763 mmHg 57%
09:00 +23°C° 0 mm 4 mps 763 mmHg 53%
10:00 +26°C° 0 mm 4 mps 763 mmHg 49%
11:00 +27°C° 0 mm 4 mps 762 mmHg 47%
12:00 +28°C° 0 mm 4 mps 762 mmHg 45%
13:00 +28°C° 0 mm 5 mps 762 mmHg 43%
14:00 +29°C° 0 mm 5 mps 762 mmHg 44%
15:00 +29°C° 0 mm 5 mps 762 mmHg 45%
16:00 +29°C° 0 mm 5 mps 762 mmHg 47%
17:00 +28°C° 0 mm 4 mps 762 mmHg 53%
18:00 +26°C° 0 mm 4 mps 762 mmHg 60%
19:00 +25°C° 0 mm 4 mps 762 mmHg 67%
20:00 +23°C° 0 mm 5 mps 762 mmHg 68%
21:00 +22°C° 0 mm 5 mps 762 mmHg 69%
22:00 +21°C° 0 mm 5 mps 762 mmHg 70%
23:00 +20°C° 0 mm 4 mps 762 mmHg 71%

Day after tomorrow, 18 June, Friday

Time Temperature Precipitation Wind Pressure Humidity
00:00 +19°C° 0 mm 4 mps 762 mmHg 72%
01:00 +18°C° 0 mm 3 mps 762 mmHg 73%
02:00 +18°C° 0 mm 3 mps 762 mmHg 74%
03:00 +17°C° 0 mm 3 mps 762 mmHg 76%
04:00 +17°C° 0 mm 3 mps 762 mmHg 77%
05:00 +19°C° 0 mm 4 mps 762 mmHg 73%
06:00 +21°C° 0 mm 4 mps 762 mmHg 68%
07:00 +23°C° 0 mm 4 mps 762 mmHg 63%
08:00 +25°C° 0 mm 4 mps 762 mmHg 56%
09:00 +27°C° 0 mm 5 mps 761 mmHg 50%
10:00 +29°C° 0 mm 5 mps 761 mmHg 43%
11:00 +29°C° 0 mm 5 mps 761 mmHg 40%
12:00 +30°C° 0 mm 5 mps 761 mmHg 38%
13:00 +32°C° 0 mm 5 mps 760 mmHg 35%
14:00 +32°C° 0 mm 5 mps 760 mmHg 37%
15:00 +32°C° 0 mm 5 mps 760 mmHg 39%
16:00 +32°C° 0 mm 4 mps 760 mmHg 41%
17:00 +30°C° 0 mm 4 mps 760 mmHg 48%
18:00 +28°C° 0 mm 4 mps 760 mmHg 56%
19:00 +27°C° 0 mm 3 mps 760 mmHg 63%
20:00 +26°C° 0 mm 3 mps 760 mmHg 68%
21:00 +24°C° 0 mm 3 mps 760 mmHg 74%
22:00 +22°C° 0 mm 3 mps 760 mmHg 79%
23:00 +22°C° 0 mm 4 mps 760 mmHg 79%

19 June, Saturday

Time Temperature Precipitation Wind Pressure Humidity
00:00 +22°C° 0 mm 4 mps 760 mmHg 78%
01:00 +22°C° 0 mm 4 mps 760 mmHg 78%
02:00 +21°C° 0 mm 4 mps 760 mmHg 81%
03:00 +21°C° 0 mm 4 mps 760 mmHg 84%
04:00 +20°C° 0 mm 4 mps 760 mmHg 86%
05:00 +22°C° 0 mm 4 mps 760 mmHg 80%
06:00 +23°C° 0 mm 5 mps 760 mmHg 73%
07:00 +26°C° 0 mm 5 mps 760 mmHg 66%
08:00 +28°C° 0 mm 5 mps 759 mmHg 60%
09:00 +29°C° 0 mm 5 mps 759 mmHg 54%
10:00 +30°C° 0 mm 5 mps 759 mmHg 48%
11:00 +32°C° 0 mm 5 mps 759 mmHg 45%
12:00 +33°C° 0 mm 5 mps 759 mmHg 43%
13:00 +34°C° 0 mm 5 mps 758 mmHg 40%
14:00 +34°C° 0 mm 5 mps 758 mmHg 41%
15:00 +34°C° 0 mm 4 mps 758 mmHg 41%
16:00 +34°C° 0 mm 4 mps 758 mmHg 41%
17:00 +33°C° 0 mm 4 mps 758 mmHg 47%
18:00 +30°C° 0 mm 4 mps 757 mmHg 54%
19:00 +29°C° 0 mm 3 mps 757 mmHg 60%
20:00 +28°C° 0 mm 3 mps 758 mmHg 63%
21:00 +27°C° 0 mm 3 mps 758 mmHg 65%
22:00 +26°C° 0 mm 3 mps 758 mmHg 68%
23:00 +26°C° 0.2 mm 3 mps 758 mmHg 71%

20 June, Sunday

Time Temperature Precipitation Wind Pressure Humidity
00:00 +25°C° 0.2 mm 2 mps 758 mmHg 74%
01:00 +24°C° 0.2 mm 2 mps 758 mmHg 77%
02:00 +24°C° 0.4 mm 2 mps 758 mmHg 82%
03:00 +23°C° 0.4 mm 1 mps 758 mmHg 86%
04:00 +22°C° 0.4 mm 1 mps 758 mmHg 91%
05:00 +23°C° 0.1 mm 1 mps 758 mmHg 87%
06:00 +24°C° 0.1 mm 2 mps 758 mmHg 83%
07:00 +25°C° 0.1 mm 2 mps 758 mmHg 79%
08:00 +26°C° 0.2 mm 2 mps 758 mmHg 73%
09:00 +28°C° 0.2 mm 2 mps 758 mmHg 67%
10:00 +29°C° 0.2 mm 2 mps 758 mmHg 62%
11:00 +30°C° 0.4 mm 2 mps 758 mmHg 58%
12:00 +31°C° 0.4 mm 3 mps 758 mmHg 54%
13:00 +31°C° 0.4 mm 3 mps 758 mmHg 50%
14:00 +30°C° 0.2 mm 3 mps 757 mmHg 56%
15:00 +29°C° 0.2 mm 3 mps 757 mmHg 62%
16:00 +28°C° 0.2 mm 3 mps 757 mmHg 68%
17:00 +28°C° 0.2 mm 3 mps 757 mmHg 68%
18:00 +28°C° 0.2 mm 3 mps 757 mmHg 68%
19:00 +28°C° 0.2 mm 3 mps 757 mmHg 69%
20:00 +27°C° 0 mm 3 mps 757 mmHg 71%
21:00 +25°C° 0 mm 3 mps 757 mmHg 73%
22:00 +24°C° 0 mm 3 mps 757 mmHg 76%
23:00 +24°C° 0 mm 3 mps 757 mmHg 77%

21 June, Monday

Time Temperature Precipitation Wind Pressure Humidity
00:00 +22°C° 0 mm 3 mps 757 mmHg 79%
01:00 +21°C° 0 mm 3 mps 757 mmHg 80%
02:00 +21°C° 0 mm 3 mps 757 mmHg 82%
03:00 +21°C° 0 mm 3 mps 757 mmHg 83%
04:00 +20°C° 0 mm 3 mps 757 mmHg 85%
05:00 +22°C° 0 mm 4 mps 757 mmHg 78%
06:00 +25°C° 0 mm 4 mps 757 mmHg 72%
07:00 +26°C° 0 mm 5 mps 756 mmHg 65%
08:00 +28°C° 0 mm 5 mps 756 mmHg 60%
09:00 +29°C° 0 mm 6 mps 756 mmHg 56%
10:00 +30°C° 0 mm 6 mps 756 mmHg 51%
11:00 +32°C° 0 mm 6 mps 756 mmHg 48%
12:00 +33°C° 0 mm 6 mps 755 mmHg 45%
13:00 +34°C° 0 mm 6 mps 755 mmHg 42%
14:00 +34°C° 0 mm 6 mps 755 mmHg 42%
15:00 +34°C° 0 mm 6 mps 755 mmHg 42%
16:00 +34°C° 0 mm 5 mps 755 mmHg 42%
17:00 +32°C° 0 mm 5 mps 755 mmHg 48%
18:00 +30°C° 0 mm 4 mps 755 mmHg 54%
19:00 +28°C° 0 mm 4 mps 755 mmHg 60%
20:00 +27°C° 0 mm 3 mps 755 mmHg 69%
21:00 +25°C° 0 mm 2 mps 755 mmHg 78%
22:00 +23°C° 0 mm 1 mps 755 mmHg 87%
23:00 +23°C° 0.1 mm 1 mps 755 mmHg 86%
Show more

We Need Your Consent

Meteoprog and our Service Providers may store and access personal data such as cookies, device identifiers or other similar technologies on your device and process such data to personalise content and ads, as well as provide social media features and to analyse the traffic.

  • Store and/or access information on your device

    Cookies, device identifiers or other information can be stored or accessed on your device for the purposes indicated above.

  • Personalised ads and content, ad and content measurement, audience insights, and products development

    Ads and content can be personalised based on a profile. More data can be added to better personalise ads and content. Ad and content performance can be measured. Insights about the audience who saw the ads and content can be derived. Such data can be used to develop or improve user’s experience, systems and software.

By clicking ‘I Agree’ you will allow the use of indicated cookies, device identifiers, web beacons or other similar technologies. Your settings can be changed in the browser on your device.

For certain purposes, legitimate interests may be relied on, rather than consent. You can read more about this in our Privacy and Cookie Policy.